Date,TemperatureHighF,TemperatureAvgF,TemperatureLowF,DewpointHighF,DewpointAvgF,DewpointLowF,HumidityHigh,HumidityAvg,HumidityLow,PressureMaxIn,PressureMinIn,WindSpeedMaxMPH,WindSpeedAvgMPH,GustSpeedMaxMPH,PrecipitationSumIn
2013-3-1,44.8,40.9,38.3,36.0,34.4,33.0,76,70,62,29.87,29.72,8,3,14,0.01
2013-3-2,43.5,38.4,35.2,32.8,28.1,25.9,69,57,45,29.88,29.80,9,4,14,0.00
2013-3-3,39.2,35.1,32.5,26.9,23.4,19.2,58,51,42,29.89,29.78,11,5,19,0.00
2013-3-4,41.9,35.8,31.5,29.8,24.1,20.6,57,51,45,30.04,29.87,13,6,27,0.06
2013-3-5,44.8,37.0,32.5,33.2,27.2,22.5,75,58,43,30.11,29.93,8,3,17,0.04
2013-3-6,42.1,39.3,35.2,39.7,36.3,32.3,90,85,70,29.93,29.54,28,12,43,15.90
2013-3-7,45.3,40.2,34.7,35.5,32.8,28.9,86,67,53,30.12,29.86,13,5,29,1.94
2013-3-8,41.2,37.2,32.4,35.9,31.4,25.2,85,73,52,30.23,30.07,9,4,18,0.04
2013-3-9,53.2,42.2,33.1,37.4,31.4,26.2,69,56,37,30.35,30.22,8,2,14,0.01
2013-3-10,49.1,39.4,27.9,40.3,33.5,22.8,88,73,60,30.42,30.34,9,2,14,0.00
2013-3-11,56.1,47.4,39.0,49.0,44.1,37.4,94,85,67,30.36,30.10,8,2,11,0.00
2013-3-12,53.8,49.9,43.0,52.1,47.3,37.7,94,88,74,30.12,29.77,9,4,15,0.17
2013-3-13,50.7,43.5,38.1,37.9,34.9,28.3,82,64,43,30.02,29.91,9,3,14,0.01
2013-3-14,43.7,38.6,34.0,28.2,24.0,21.0,52,44,35,30.10,30.00,14,6,23,0.01
2013-3-15,51.6,42.2,34.3,35.9,28.4,17.0,70,47,33,30.12,29.84,10,4,17,0.01
2013-3-16,48.4,41.5,35.1,37.3,34.3,29.9,82,68,55,29.94,29.73,12,4,21,0.00
2013-3-17,41.9,37.9,35.2,34.2,28.7,21.5,83,61,44,30.33,29.94,8,3,15,0.00
2013-3-18,48.6,39.9,34.9,47.3,31.9,20.0,95,67,41,30.39,29.88,11,4,17,0.22
2013-3-19,52.9,45.1,41.4,48.6,41.1,30.0,96,83,49,29.93,29.77,8,2,12,0.35
2013-3-20,51.3,43.4,36.1,34.6,29.3,25.0,64,47,32,30.03,29.84,11,4,17,0.04
2013-3-21,42.6,35.6,30.6,33.2,25.6,14.9,84,58,34,29.88,29.73,14,4,21,0.04
2013-3-22,43.7,37.0,31.5,30.0,23.9,17.6,54,48,39,30.01,29.88,14,6,21,0.01
2013-3-23,48.9,40.3,34.3,35.9,28.4,23.4,64,52,43,30.04,29.94,8,3,15,0.00
2013-3-24,43.3,38.4,30.0,31.0,26.9,22.1,68,53,39,30.03,29.69,8,2,11,0.00
2013-3-25,38.5,35.9,33.8,36.5,32.9,29.9,90,85,67,29.73,29.45,15,5,21,0.70
2013-3-26,50.7,41.9,36.5,39.1,35.4,33.3,86,71,50,29.97,29.69,8,3,12,0.08
2013-3-27,51.3,44.2,39.9,38.3,35.4,33.6,80,63,46,30.09,29.96,8,3,17,0.00
2013-3-28,49.8,43.6,39.6,38.9,34.7,32.3,69,62,52,30.20,30.07,8,4,14,0.00
2013-3-29,51.8,45.5,40.5,38.6,35.6,32.5,68,60,38,30.25,30.14,6,2,11,0.00
2013-3-30,59.2,46.8,37.8,39.1,35.9,31.1,82,59,25,30.26,30.17,6,2,7,0.00
2013-3-31,54.1,47.3,40.6,48.6,42.8,38.0,94,81,51,30.21,29.77,8,3,17,0.08